When you browse on this site, cookies collect data to enhance your experience and personalize the content and advertising you see.
Visit our Privacy Policy to learn more. By continuing to use the site, you agree to this use of cookies and data.
  • In Switzerland
  • List of Countries
  • For 7 days
  • Water Temperature
  • Satellite Maps
  • Weather Map
  • Weather Widgets
  • user-avatar
    Login

    Hourly Weather Kerns

    Today, 23 March, Saturday

    Time Temperature Precipitation Wind Pressure Humidity
    00:00 +26°C° 0.2 mm 4 mps 757 mmHg 98%
    01:00 +26°C° 0.2 mm 4 mps 757 mmHg 98%
    02:00 +26°C° 0.3 mm 4 mps 757 mmHg 97%
    03:00 +26°C° 0.3 mm 4 mps 757 mmHg 97%
    04:00 +26°C° 0 mm 4 mps 756 mmHg 97%
    05:00 +26°C° 0.2 mm 4 mps 757 mmHg 97%
    06:00 +26°C° 0.2 mm 3 mps 757 mmHg 97%
    07:00 +26°C° 0.2 mm 3 mps 757 mmHg 97%
    08:00 +27°C° 0.4 mm 3 mps 758 mmHg 93%
    09:00 +28°C° 0.4 mm 3 mps 758 mmHg 90%
    10:00 +30°C° 0 mm 3 mps 758 mmHg 84%
    11:00 +31°C° 1 mm 3 mps 758 mmHg 83%
    12:00 +31°C° 1 mm 3 mps 758 mmHg 82%
    13:00 +31°C° 1 mm 2 mps 757 mmHg 81%
    14:00 +31°C° 0.4 mm 2 mps 757 mmHg 81%
    15:00 +31°C° 0.4 mm 2 mps 757 mmHg 81%
    16:00 +31°C° 0 mm 2 mps 757 mmHg 81%
    17:00 +30°C° 0.2 mm 2 mps 757 mmHg 86%
    18:00 +28°C° 0.2 mm 2 mps 757 mmHg 91%
    19:00 +27°C° 0.2 mm 2 mps 758 mmHg 96%
    20:00 +27°C° 0.1 mm 2 mps 758 mmHg 97%
    21:00 +27°C° 0.1 mm 2 mps 758 mmHg 97%
    22:00 +27°C° 0.1 mm 2 mps 758 mmHg 97%
    23:00 +26°C° 0 mm 2 mps 758 mmHg 97%

    Tomorrow, 24 March, Sunday

    Time Temperature Precipitation Wind Pressure Humidity
    00:00 +26°C° 0 mm 2 mps 758 mmHg 97%
    01:00 +26°C° 0 mm 2 mps 758 mmHg 97%
    02:00 +26°C° 0 mm 2 mps 758 mmHg 97%
    03:00 +26°C° 0 mm 2 mps 757 mmHg 97%
    04:00 +26°C° 0 mm 2 mps 757 mmHg 97%
    05:00 +26°C° 0 mm 2 mps 757 mmHg 97%
    06:00 +26°C° 0 mm 2 mps 758 mmHg 97%
    07:00 +27°C° 0 mm 2 mps 758 mmHg 97%
    08:00 +28°C° 0.1 mm 2 mps 758 mmHg 90%
    09:00 +29°C° 0.1 mm 2 mps 758 mmHg 84%
    10:00 +31°C° 0.1 mm 3 mps 759 mmHg 78%
    11:00 +31°C° 0.4 mm 3 mps 758 mmHg 80%
    12:00 +31°C° 0.4 mm 3 mps 758 mmHg 81%
    13:00 +31°C° 0.4 mm 3 mps 757 mmHg 83%
    14:00 +31°C° 0.8 mm 3 mps 757 mmHg 84%
    15:00 +31°C° 0.8 mm 3 mps 757 mmHg 86%
    16:00 +30°C° 0.8 mm 2 mps 756 mmHg 87%
    17:00 +29°C° 0.2 mm 2 mps 757 mmHg 90%
    18:00 +28°C° 0.2 mm 2 mps 757 mmHg 93%
    19:00 +27°C° 0.2 mm 1 mps 757 mmHg 96%
    20:00 +27°C° 0.1 mm 1 mps 758 mmHg 97%
    21:00 +27°C° 0.1 mm 1 mps 758 mmHg 97%
    22:00 +27°C° 0.1 mm 1 mps 759 mmHg 97%
    23:00 +27°C° 0.1 mm 1 mps 759 mmHg 97%

    Day after tomorrow, 25 March, Monday

    Time Temperature Precipitation Wind Pressure Humidity
    00:00 +27°C° 0.1 mm 1 mps 758 mmHg 98%
    01:00 +26°C° 0.1 mm 1 mps 758 mmHg 98%
    02:00 +26°C° 0.1 mm 1 mps 758 mmHg 98%
    03:00 +26°C° 0.1 mm 1 mps 757 mmHg 98%
    04:00 +26°C° 0.1 mm 1 mps 757 mmHg 98%
    05:00 +26°C° 0.3 mm 1 mps 757 mmHg 98%
    06:00 +26°C° 0.3 mm 1 mps 758 mmHg 98%
    07:00 +26°C° 0.3 mm 2 mps 758 mmHg 98%
    08:00 +28°C° 0.2 mm 2 mps 759 mmHg 90%
    09:00 +30°C° 0.2 mm 2 mps 759 mmHg 82%
    10:00 +32°C° 0.2 mm 2 mps 759 mmHg 75%
    11:00 +32°C° 0.1 mm 2 mps 759 mmHg 72%
    12:00 +34°C° 0.1 mm 3 mps 758 mmHg 70%
    13:00 +34°C° 0.1 mm 3 mps 758 mmHg 68%
    14:00 +34°C° 0.1 mm 3 mps 757 mmHg 70%
    15:00 +33°C° 0.1 mm 3 mps 757 mmHg 72%
    16:00 +33°C° 0.1 mm 3 mps 756 mmHg 74%
    17:00 +30°C° 0 mm 2 mps 757 mmHg 80%
    18:00 +29°C° 0 mm 2 mps 757 mmHg 87%
    19:00 +28°C° 0 mm 2 mps 758 mmHg 93%
    20:00 +27°C° 0 mm 1 mps 758 mmHg 94%
    21:00 +27°C° 0 mm 1 mps 759 mmHg 95%
    22:00 +27°C° 0 mm 1 mps 760 mmHg 96%
    23:00 +27°C° 0 mm 1 mps 759 mmHg 96%

    26 March, Tuesday

    Time Temperature Precipitation Wind Pressure Humidity
    00:00 +27°C° 0 mm 1 mps 759 mmHg 96%
    01:00 +26°C° 0 mm 1 mps 759 mmHg 97%
    02:00 +26°C° 0 mm 1 mps 758 mmHg 97%
    03:00 +26°C° 0 mm 1 mps 758 mmHg 97%
    04:00 +26°C° 0 mm 1 mps 758 mmHg 97%
    05:00 +26°C° 0 mm 1 mps 758 mmHg 97%
    06:00 +27°C° 0 mm 1 mps 758 mmHg 96%
    07:00 +27°C° 0 mm 1 mps 759 mmHg 96%
    08:00 +28°C° 0.1 mm 1 mps 759 mmHg 88%
    09:00 +30°C° 0.1 mm 2 mps 759 mmHg 81%
    10:00 +32°C° 0.1 mm 2 mps 759 mmHg 73%
    11:00 +32°C° 0.3 mm 2 mps 759 mmHg 73%
    12:00 +34°C° 0.3 mm 2 mps 758 mmHg 73%
    13:00 +34°C° 0.3 mm 2 mps 758 mmHg 73%
    14:00 +32°C° 0.3 mm 2 mps 757 mmHg 74%
    15:00 +32°C° 0.3 mm 2 mps 757 mmHg 75%
    16:00 +32°C° 0.3 mm 2 mps 756 mmHg 77%
    17:00 +30°C° 0 mm 2 mps 757 mmHg 83%
    18:00 +29°C° 0 mm 2 mps 757 mmHg 89%
    19:00 +28°C° 0 mm 1 mps 758 mmHg 95%
    20:00 +28°C° 0 mm 1 mps 758 mmHg 96%
    21:00 +27°C° 0 mm 1 mps 759 mmHg 96%
    22:00 +27°C° 0 mm 1 mps 760 mmHg 97%
    23:00 +27°C° 0.1 mm 1 mps 759 mmHg 97%

    27 March, Wednesday

    Time Temperature Precipitation Wind Pressure Humidity
    00:00 +27°C° 0.1 mm 1 mps 759 mmHg 98%
    01:00 +27°C° 0.1 mm 1 mps 758 mmHg 98%
    02:00 +27°C° 0.2 mm 1 mps 758 mmHg 98%
    03:00 +27°C° 0.2 mm 1 mps 758 mmHg 98%
    04:00 +27°C° 0.2 mm 1 mps 757 mmHg 98%
    05:00 +27°C° 0.1 mm 1 mps 758 mmHg 98%
    06:00 +27°C° 0.1 mm 1 mps 758 mmHg 98%
    07:00 +27°C° 0.1 mm 1 mps 759 mmHg 97%
    08:00 +28°C° 0 mm 1 mps 759 mmHg 91%
    09:00 +30°C° 0 mm 2 mps 759 mmHg 84%
    10:00 +31°C° 0 mm 2 mps 759 mmHg 78%
    11:00 +32°C° 0 mm 2 mps 758 mmHg 72%
    12:00 +34°C° 0 mm 2 mps 758 mmHg 66%
    13:00 +35°C° 0 mm 2 mps 757 mmHg 60%
    14:00 +35°C° 0 mm 3 mps 757 mmHg 63%
    15:00 +34°C° 0 mm 3 mps 756 mmHg 66%
    16:00 +34°C° 0 mm 3 mps 756 mmHg 69%
    17:00 +31°C° 0.1 mm 2 mps 756 mmHg 78%
    18:00 +29°C° 0.1 mm 2 mps 757 mmHg 87%
    19:00 +28°C° 0.1 mm 1 mps 757 mmHg 95%
    20:00 +27°C° 0.1 mm 1 mps 757 mmHg 96%
    21:00 +27°C° 0.1 mm 1 mps 758 mmHg 97%
    22:00 +27°C° 0.1 mm 1 mps 758 mmHg 98%
    23:00 +27°C° 0.2 mm 1 mps 758 mmHg 98%

    28 March, Thursday

    Time Temperature Precipitation Wind Pressure Humidity
    00:00 +27°C° 0.2 mm 1 mps 757 mmHg 98%
    01:00 +27°C° 0.2 mm 1 mps 757 mmHg 98%
    02:00 +26°C° 0.2 mm 1 mps 757 mmHg 98%
    03:00 +26°C° 0.2 mm 1 mps 757 mmHg 98%
    04:00 +24°C° 0.2 mm 0 mps 756 mmHg 98%
    05:00 +24°C° 0 mm 0 mps 757 mmHg 98%
    06:00 +25°C° 0 mm 0 mps 757 mmHg 98%
    07:00 +25°C° 0 mm 0 mps 758 mmHg 97%
    08:00 +26°C° 0 mm 0 mps 758 mmHg 89%
    09:00 +28°C° 0 mm 0 mps 758 mmHg 81%
    10:00 +32°C° 0 mm 1 mps 758 mmHg 73%
    11:00 +32°C° 0 mm 1 mps 757 mmHg 69%
    12:00 +34°C° 0 mm 2 mps 756 mmHg 66%
    13:00 +35°C° 0 mm 2 mps 756 mmHg 62%
    14:00 +34°C° 0 mm 2 mps 755 mmHg 66%
    15:00 +34°C° 0 mm 2 mps 755 mmHg 69%
    16:00 +32°C° 0 mm 2 mps 754 mmHg 72%
    17:00 +31°C° 0 mm 2 mps 754 mmHg 79%
    18:00 +29°C° 0 mm 1 mps 755 mmHg 86%
    19:00 +28°C° 0 mm 1 mps 755 mmHg 93%
    20:00 +27°C° 0 mm 1 mps 756 mmHg 94%
    21:00 +27°C° 0 mm 1 mps 756 mmHg 94%
    22:00 +27°C° 0 mm 1 mps 757 mmHg 95%
    23:00 +25°C° 0 mm 0 mps 756 mmHg 95%
    Show more